This is the latest recevied weather packets stored in our database for station/object K2CCS. If no packets are shown the sender has not sent any weather packets the latest 10 day(s).
| Time | Temp. | Humidity | Pressure | Rain* | Wind** | Luminosity | Snow |
|---|---|---|---|---|---|---|---|
| 1777314266 | 22.78° C | 35% | 1027.3 hPa | 0 mm | - | 458 W/m² | - |
| 1777313964 | 22.78° C | 35% | 1027.3 hPa | 0 mm | - | 363 W/m² | - |
| 1777313661 | 22.22° C | 34% | 1027.3 hPa | 0 mm | - | 624 W/m² | - |
| 1777313359 | 22.22° C | 34% | 1027.3 hPa | 0 mm | - | 638 W/m² | - |
| 1777313055 | 22.78° C | 33% | 1027.4 hPa | 0 mm | - | 636 W/m² | - |
| 1777312751 | 22.78° C | 34% | 1027.3 hPa | 0 mm | - | 658 W/m² | - |
| 1777312448 | 22.78° C | 34% | 1027.4 hPa | 0 mm | - | 663 W/m² | - |
| 1777312145 | 22.22° C | 34% | 1027.6 hPa | 0 mm | - | 678 W/m² | - |
| 1777311843 | 22.22° C | 35% | 1027.7 hPa | 0 mm | - | 667 W/m² | - |
| 1777311540 | 21.67° C | 35% | 1027.6 hPa | 0 mm | - | 662 W/m² | - |
| 1777311237 | 21.67° C | 35% | 1028 hPa | 0 mm | - | 649 W/m² | - |
| 1777310935 | 21.67° C | 36% | 1027.8 hPa | 0 mm | - | 649 W/m² | - |
| 1777310632 | 21.11° C | 36% | 1028.1 hPa | 0 mm | - | 664 W/m² | - |
| 1777310329 | 21.67° C | 35% | 1027.8 hPa | 0 mm | - | 675 W/m² | - |
| 1777310026 | 21.67° C | 37% | 1028.1 hPa | 0 mm | - | 662 W/m² | - |
| 1777309724 | 21.67° C | 36% | 1028.2 hPa | 0 mm | - | 633 W/m² | - |
| 1777309422 | 21.11° C | 36% | 1028 hPa | 0 mm | - | 650 W/m² | - |
| 1777309119 | 21.67° C | 36% | 1028.3 hPa | 0 mm | - | 682 W/m² | - |
| 1777308816 | 21.11° C | 36% | 1028.1 hPa | 0 mm | - | 678 W/m² | - |
| 1777308511 | 21.11° C | 37% | 1028.2 hPa | 0 mm | - | 665 W/m² | - |
| 1777308207 | 21.11° C | 37% | 1028.3 hPa | 0 mm | - | 689 W/m² | - |
| 1777307903 | 21.67° C | 35% | 1028.3 hPa | 0 mm | - | 721 W/m² | - |
| 1777307602 | 21.11° C | 37% | 1028.5 hPa | 0 mm | - | 736 W/m² | - |
| 1777307297 | 20.56° C | 38% | 1028.4 hPa | 0 mm | - | 746 W/m² | - |
| 1777306995 | 21.11° C | 38% | 1028.6 hPa | 0 mm | - | 755 W/m² | - |
* Rain latest hour (hover to see other rain measurements)
** Current wind speed in m/s (hover to see current wind gust speed)